Simultaneous Nadir Overpasses (SNOs) Predictions

Prediction of SNOs between GOES-16 and METOP-B Satellite Orbit:

Table of predicted SNOs for the next 14.0 days since TLE Epoch: 2/8/2019
Index Date Time (GOES-16) GOES-16 Lat,Lon METOP-B Lat,Lon Distance(km) Time Diff (sec)
1 02/09/2019 14:19:03 0.02, -75.19 -0.60, -72.30 329.24 80
2 02/11/2019 02:38:05 -0.02, -75.19 -0.41, -76.90 194.58 80
3 02/12/2019 02:14:46 -0.02, -75.20 0.71, -71.91 375.09 80
4 02/13/2019 14:33:39 0.01, -75.22 0.28, -76.47 142.84 80
5 02/14/2019 14:15:41 0.01, -75.22 -0.85, -71.48 426.80 80
6 02/16/2019 02:34:42 -0.00, -75.22 -0.17, -76.08 96.79 80
7 02/17/2019 02:11:23 -0.00, -75.23 0.91, -71.08 473.13 80
8 02/18/2019 14:30:16 0.00, -75.26 0.10, -75.64 44.23 80
9 02/21/2019 02:28:39 0.00, -75.28 0.03, -75.25 4.58 80




NCC Satellite Simultaneous Nadir Overpasses (SNOs) Prediction Service
